TimePDT,TemperatureF,Dew PointF,Humidity,Sea Level PressureIn,VisibilityMPH,Wind Direction,Wind SpeedMPH,Gust SpeedMPH,PrecipitationIn,Events,Conditions,WindDirDegrees,DateUTC
12:53 AM,39.9,26.1,58,30.04,10.0,NNE,5.8,-,N/A,,Clear,30,2013-03-23 07:53:00
1:53 AM,44.1,25.0,47,30.05,10.0,Calm,Calm,-,N/A,,Clear,0,2013-03-23 08:53:00
2:53 AM,35.1,21.9,59,30.04,10.0,Calm,Calm,-,N/A,,Clear,0,2013-03-23 09:53:00
3:53 AM,34.0,24.1,67,30.04,10.0,East,5.8,-,N/A,,Clear,90,2013-03-23 10:53:00
4:53 AM,35.1,23.0,61,30.04,10.0,Calm,Calm,-,N/A,,Clear,0,2013-03-23 11:53:00
5:53 AM,33.1,21.0,61,30.06,10.0,ENE,3.5,-,N/A,,Clear,70,2013-03-23 12:53:00
6:53 AM,30.9,21.9,69,30.08,10.0,Calm,Calm,-,N/A,,Clear,0,2013-03-23 13:53:00
7:53 AM,33.1,23.0,66,30.09,10.0,Calm,Calm,-,N/A,,Clear,0,2013-03-23 14:53:00
8:53 AM,44.1,21.0,40,30.10,10.0,Calm,Calm,-,N/A,,Clear,0,2013-03-23 15:53:00
9:53 AM,54.0,21.9,29,30.11,10.0,Variable,3.5,-,N/A,,Clear,0,2013-03-23 16:53:00
10:53 AM,60.1,19.0,20,30.10,10.0,NE,3.5,-,N/A,,Clear,50,2013-03-23 17:53:00
11:53 AM,63.0,17.1,17,30.07,10.0,Calm,Calm,-,N/A,,Clear,0,2013-03-23 18:53:00
12:53 PM,66.0,18.0,16,30.06,10.0,Calm,Calm,-,N/A,,Clear,0,2013-03-23 19:53:00
1:53 PM,71.1,18.0,13,30.03,10.0,Calm,Calm,-,N/A,,Clear,0,2013-03-23 20:53:00
2:53 PM,73.9,19.0,13,30.01,10.0,East,9.2,-,N/A,,Clear,90,2013-03-23 21:53:00
3:53 PM,73.9,18.0,12,29.99,10.0,NE,3.5,-,N/A,,Clear,50,2013-03-23 22:53:00
4:53 PM,73.9,18.0,12,29.98,10.0,Calm,Calm,-,N/A,,Clear,0,2013-03-23 23:53:00
5:53 PM,73.9,18.0,12,29.98,10.0,East,6.9,-,N/A,,Clear,100,2013-03-24 00:53:00
6:53 PM,68.0,21.0,17,30.00,10.0,ESE,8.1,-,N/A,,Clear,120,2013-03-24 01:53:00
7:53 PM,63.0,21.0,20,30.03,10.0,Calm,Calm,-,0.00,,Clear,0,2013-03-24 02:53:00
8:53 PM,59.0,28.0,31,30.05,10.0,NW,8.1,-,N/A,,Clear,320,2013-03-24 03:53:00
9:53 PM,55.0,30.0,38,30.06,10.0,NW,10.4,-,N/A,,Clear,310,2013-03-24 04:53:00
10:53 PM,51.1,30.9,46,30.07,10.0,NW,5.8,-,N/A,,Clear,320,2013-03-24 05:53:00
11:53 PM,46.9,32.0,56,30.07,10.0,NNW,4.6,-,N/A,,Clear,340,2013-03-24 06:53:00